Regional Weather Roundup
Issued by NWS San Diego, CA

Home | Current Version | Previous Version | Text Only | Print | Product List | Glossary On
Versions: 1 2 3 4 5 6 7 8 9 10 11 12 13 14 15 16 17 18 19 20 21 22 23 24 25 26 27 28 29 30 31 32 33 34 35 36 37 38 39 40 41 42 43 44 45 46 47 48 49 50
000
ASUS46 KSGX 060111
RWRSGX

SAN DIEGO HOURLY WEATHER ROUNDUP
NATIONAL WEATHER SERVICE SAN DIEGO CA
600 PM PDT SUN JUL 05 2015

NOTE: "FAIR" INDICATES FEW OR NO CLOUDS BELOW 12,000 FEET WITH NO
SIGNIFICANT WEATHER AND/OR OBSTRUCTIONS TO VISIBILITY.

CAZ042-043-060-061-PZZ750-775-060200-

GREATER SAN DIEGO AREA

CITY           SKY/WX    TMP DP  RH WIND       PRES   REMARKS
LINDBERGH FLD  PTSUNNY   70  59  68 W7        29.98S
POINT LOMA       N/A     68  59  73 W8          N/A
NATIONAL CITY    N/A     70  62  76 W3        29.98S
CHULA VISTA      N/A     69  63  81 W7        29.90F
IMPERIAL BEACH CLOUDY    70  60  70 W9        29.97F
BROWN FIELD    CLOUDY    67  60  78 W8        29.96F
MIRAMAR MCAS   CLOUDY    70  59  68 W7        29.97S
MONTGOMERY FLD CLOUDY    69  59  70 SW8       29.97S

$$

NORTH SAN DIEGO COUNTY

CITY           SKY/WX    TMP DP  RH WIND       PRES   REMARKS
CAMP PENDLETON MOSUNNY   70  59  68 W9        29.95S
OCEANSIDE AP   CLOUDY    69  60  73 SW12      29.95S
OCEANSIDE HBR    N/A     67  63  85 SW3       29.98F
VISTA            N/A     68  61  78 SW2       29.94S
CARLSBAD       CLOUDY    67  60  78 VRB5      29.96S
DEL MAR          N/A     68  62  80 CALM      29.98F
LA JOLLA SCRIP   N/A    N/A N/A N/A SW6       29.94F
FALLBROOK        N/A     72  64  74 S8        29.94F
ESCONDIDO        N/A     71  62  72 W9        29.96S
SAN MARCOS       N/A     67  61  80 W9        29.94S
POWAY            N/A     71  62  72 CALM      29.96S

$$

EAST SAN DIEGO COUNTY

CITY           SKY/WX    TMP DP  RH WIND       PRES   REMARKS
RAMONA         MOSUNNY   72  59  63 W13       29.97S
SANTEE LAKES     N/A     71  62  72 W5        29.95S
LA MESA          N/A     70  61  73 W7        29.71F
JAMUL            N/A     72  62  69 W5        29.94S
DESCANSO N       N/A     75  60  60 W5        29.79S
CAMPO            N/A     74  59  59 SW17G24   29.95S

$$

ORANGE COUNTY AND THE LOS ANGELES BASIN

CITY           SKY/WX    TMP DP  RH WIND       PRES   REMARKS
JOHN WAYNE AP  MOSUNNY   70  59  68 SW8       29.95S
LAKE FOREST FR   N/A     75  58  54 W3        29.84S
SANTA ANA        N/A     75  62  63 CALM      29.90S
HUNTINGTON BCH   N/A     70  64  81 SW6       29.97S
LOS ALAMITOS   FAIR      71  62  72 SW13      29.94S
FULLERTON      SUNNY     74  60  61 SW8       29.93S
LONG BEACH     MOSUNNY   73  60  63 NW12      29.94S
L.A. AP        PTSUNNY   66  60  81 W12       29.96S
L.A. DOWNTOWN  MOSUNNY   69  59  70 VRB3      29.94S

$$

THE INLAND EMPIRE

CITY           SKY/WX    TMP DP  RH WIND       PRES   REMARKS
CORONA         CLOUDY    77  60  55 W16       29.92R
CHINO          MOSUNNY   79  59  50 SW17      29.93S
ONTARIO        MOSUNNY   79  58  48 W14       29.92S
SAN BERNARDINO SUNNY     84  54  34 SW14      29.91F
RIVERSIDE AP   SUNNY     80  59  48 W10G18    29.92S
MORENO VALLEY    N/A     85  62  45 W6        29.88F
MARCH ARB      SUNNY     81  58  44 NW13      29.93F
HORSETHIEF CYN   N/A     82  57  41 N9        29.93S
PERRIS           N/A     82  60  46 NW6         N/A
MENIFEE          N/A     83  63  50 S5        29.96S
HEMET EAST       N/A     85  57  37 SW7       29.92S
FRENCH VALLEY  FAIR      75  59  57 SW13      29.95S
TEMECULA         N/A     77  62  59 S7        29.87S

$$

SAN BERNARDINO AND RIVERSIDE COUNTY MOUNTAINS

CITY           SKY/WX    TMP DP  RH WIND       PRES   REMARKS
BIG BEAR AP    MOSUNNY   72  45  37 W12G22    30.23S
PINE COVE        N/A     71  54  54 NW1       29.81S

$$

SOUTHERN DESERT INCLUDING THE COACHELLA VALLEY

CITY           SKY/WX    TMP DP  RH WIND       PRES   REMARKS
PALM SPRINGS   SUNNY    103  55  20 NW10      29.76S HX 101
THOUSAND PALMS   N/A    103  56  20 NW9       29.72S HX 102
PALM DESERT      N/A    105  67  29 SE1       29.90R HX 110
THERMAL        MOSUNNY  100  63  29 SE8       29.69S HX 102
BLYTHE         SUNNY    104  63  26 S18       29.73S HX 106
IMPERIAL AP    MOSUNNY  103  53  19 SE21      29.70F HX 101
EL CENTRO NAS  SUNNY    103  55  20 SE21      29.72F HX 101
YUMA AZ        SUNNY    102  58  23 S17       29.75S HX 102
MEXICALI       MOSUNNY   99  52  20 SE17      29.75S HX  96

$$

UPPER DESERT

CITY           SKY/WX    TMP DP  RH WIND       PRES   REMARKS
VICTORVILLE AP SUNNY     93  46  20 SW12      29.91R
HESPERIA         N/A     86  48  26 W7        29.87R
APPLE VALLEY     N/A     88  46  23 S9G25     29.97R
PALMDALE       SUNNY     91  41  17 NW18G24   29.92R
LANCASTER      SUNNY     91  43  18 W14       29.92R
EDWARDS AFB    SUNNY     95  43  16 SW23G31   29.86R
DAGGETT        MOSUNNY  100  35  10 E12       29.80F
29 PALMS N     SUNNY     99  51  19 SW20      29.89R HX  96
NEEDLES        SUNNY    108  52  15 S8        29.74S HX 105

$$

REGIONAL REPORTS

CITY           SKY/WX    TMP DP  RH WIND       PRES   REMARKS
SANTA BARBARA  SUNNY     67  58  72 W13       29.94F
SANDBERG       SUNNY     82  33  17 S13       30.08S
LAS VEGAS NV   CLOUDY    95  48  20 S15       29.82S
PHOENIX AZ     PTSUNNY   92  64  39 S22G29    29.84F
TIJUANA        CLOUDY    68  57  68 W12       29.99F
ENSENADA NW      N/A     67  32  27 W10       29.94F

$$

OFFSHORE ISLANDS

CITY           SKY/WX    TMP DP  RH WIND       PRES   REMARKS
CATALINA ARPT  CLOUDY    59  56  89 SW14      29.99S
SAN NICOLAS IS CLOUDY   N/A N/A N/A W16       29.97F

$$

MARINE AND OFFSHORE BUOY REPORTS

STATION/POSITION SKY/WX   TEMP    WIND        PRES    SWELL
                          AIR SEA DIR/SP/G            HT/PER/DIR
                          (F)     (DEG/KT/KT) (MB)    (FT/S/D)
TANNER BANKS               65 65  300/  6/  8 1015.1F   3/190/15
S CLEMENTE BASIN           65 68  280/ 10/ 14 1014.6F   2/190/15
SAN NICOLAS IS.               65                N/A     3/190/15
SO. S. ROSA ISLA           63 66  280/ 10/ 12 1013.8F   3/15
W. S. BARBARA CH           61 61  300/ 12/ 16 1013.7F   2/210/15
M. S. BARBARA CH           62 63  270/ 10/ 12 1015.0F
S. MONICA BASIN            64 68  270/  8/ 10 1014.4F   2/210/15
S PEDRO CHANNEL               66                N/A     2/180/15
DANA POINT                    69                N/A     2/190/15
OCEANSIDE OFFSHR              70                N/A     2/200/15
TORREY PINES OTR              70                N/A     2/230/13
LA JOLLA 1                 67 71  280/  7/  9 1014.7F
MISSION BAY BUOY              70                N/A     2/210/14
SAN DIEGO BAY                 72              1015.3F
POINT LOMA SOUTH              70                N/A     3/200/15

$$




USA.gov is the U.S. government's official web portal to all federal, state and local government web resources and services.